RH
24 21 18 18 23 23 30 46 35 46 56 56 49 55 56 63 59 58 55 65 69 63 65 86 99 100 100
38 32 27 18 18 20 25 32 33 35 40 42 42 41 40 45 49 34 26 28 32 42 58 72 71 78 100
34 35 26 20 16 16 20 24 18 19 30 35 25 21 32 28 18 17 19 21 26 37 48 50 59 85 100
19 20 20 18 16 13 14 16 21 19 17 14 17 20 17 16 16 18 20 22 26 28 31 39 47 86 100
10 13 16 15 13 14 14 16 18 17 16 17 18 18 20 19 19 22 23 22 29 43 37 96 75 100 100
9 9 10 11 12 13 14 16 16 17 19 21 20 22 22 23 26 29 25 28 44 68 80 100 89 100 100
13 12 14 14 14 15 16 17 18 19 18 20 19 22 24 33 28 46 47 78 94 100 100 100 100 98 100
18 17 17 17 19 20 20 22 25 25 21 26 25 27 27 34 53 55 66 82 98 100 100 100 100 100 100
28 28 22 22 23 26 28 33 33 38 28 39 42 48 56 66 61 67 90 99 100 100 100 100 100 100 100
36 36 38 37 33 33 29 30 37 41 42 31 48 44 52 65 76 82 84 92 97 92 100 100 95 96 99
37 40 41 42 47 49 53 59 65 72 77 60 68 68 75 77 67 74 82 95 99 100 100 99 100 94 95
25 32 40 44 45 46 52 57 62 75 76 80 87 83 81 93 99 95 80 97 100 98 100 98 96 95 98
15 18 23 31 38 45 52 53 61 70 74 70 72 84 78 93 100 100 89 100 100 100 100 94 100 100 100
7 8 10 12 14 17 27 36 52 63 67 77 76 68 80 84 99 100 100 99 85 96 100 100 100 100 96
5 5 6 7 8 8 10 11 14 29 48 56 65 77 78 85 93 97 100 100 100 98 100 100 99 100 100
4 4 4 4 5 5 6 6 7 8 10 12 28 56 68 77 86 90 92 99 100 100 100 100 100 100 100
3 4 4 4 4 4 4 4 5 5 6 7 6 7 18 61 73 81 85 83 84 89 89 92 94 100 100
Wind_Speed
105 106 106 107 107 110 111 114 106 107 106 105 103 100 98 97 96 93 90 88 91 90 85 82 79 78 72
104 105 108 107 108 107 106 109 106 103 103 103 103 102 95 94 90 88 88 85 85 83 80 79 74 69 64
95 99 103 103 104 106 108 108 107 104 101 98 95 94 89 89 82 85 76 74 74 74 73 72 68 64 60
88 94 96 96 96 97 99 100 102 102 98 97 91 87 84 82 79 76 73 72 71 71 66 67 63 56 52
87 85 86 89 89 89 89 89 90 92 90 87 85 83 82 80 75 75 75 73 70 71 66 64 62 57 52
76 82 85 85 82 83 83 85 87 87 87 86 82 82 77 80 76 79 73 73 69 68 62 67 55 52 52
70 71 73 77 80 80 80 80 82 85 82 81 80 79 77 77 75 72 69 67 64 63 64 59 62 57 60
69 70 70 72 73 75 77 77 78 79 78 76 78 75 75 73 72 71 67 66 65 65 62 61 62 66 65
71 73 72 71 71 71 72 71 72 73 75 69 71 69 69 68 69 67 66 64 67 70 69 66 67 70 69
73 71 70 73 73 73 73 71 71 70 73 70 68 68 68 70 70 67 66 65 66 67 63 62 60 59 60
80 79 79 76 76 74 73 73 72 69 72 68 67 69 68 68 68 68 62 59 59 60 57 61 58 55 57
87 87 87 85 83 82 80 78 76 75 76 75 71 71 68 65 68 67 67 66 65 65 61 61 60 57 55
90 92 93 93 92 91 88 86 85 84 82 81 78 77 74 71 68 79 75 72 75 77 77 72 71 75 66
88 90 93 95 96 95 95 94 92 92 91 91 89 85 83 79 80 79 85 83 82 86 85 82 76 74 70
82 85 88 90 93 95 95 96 96 98 99 98 97 96 94 92 89 87 91 90 90 87 85 84 83 79 79
78 79 81 83 85 89 91 93 94 96 98 100 101 103 102 101 99 98 96 97 98 99 96 91 88 86 87
71 74 77 81 83 85 85 85 88 91 94 97 96 96 102 107 109 104 102 100 100 98 97 94 91 90 91
Wind_Direction
255 256 255 257 258 258 261 262 262 261 262 262 263 265 265 268 270 271 272 269 270 270 271 272 273 274 275
256 256 258 256 256 257 257 259 261 261 261 262 264 266 269 268 268 267 268 267 267 268 269 270 271 270 269
257 257 257 257 256 257 259 261 260 261 263 264 265 267 266 266 265 267 266 268 267 266 266 266 266 266 264
258 257 257 258 257 257 257 258 261 262 263 264 264 264 263 266 266 264 265 265 263 263 261 262 262 259 253
259 257 257 256 256 254 254 254 256 260 262 262 262 262 261 261 262 264 263 262 260 261 261 254 256 255 242
261 259 255 255 256 255 253 253 254 256 257 259 259 257 258 260 260 260 258 258 254 255 250 249 254 240 242
258 257 258 257 256 257 256 255 254 255 254 256 257 257 257 255 256 253 254 249 251 244 247 247 242 251 244
261 260 258 257 256 257 257 256 255 256 257 255 255 253 253 251 250 251 249 247 248 247 249 246 244 247 247
259 259 258 257 257 256 255 256 255 255 255 252 253 251 251 250 247 249 247 246 245 247 248 249 247 247 247
260 260 260 258 256 254 253 252 253 252 253 251 250 250 247 247 247 247 249 247 247 247 242 244 245 244 242
261 260 260 259 258 256 256 253 251 248 251 251 248 248 248 248 247 244 240 241 242 244 245 245 243 249 246
259 259 259 258 257 256 255 255 254 251 250 250 248 248 246 246 245 246 242 240 244 248 249 252 251 244 248
257 257 257 256 256 255 254 254 253 252 251 251 247 246 244 243 240 241 242 237 240 247 249 244 246 249 250
260 258 257 258 257 256 254 253 251 252 251 250 249 247 244 242 239 239 242 247 243 243 244 248 248 249 246
262 261 260 259 259 258 257 256 254 251 249 248 248 249 248 247 245 240 240 242 247 246 245 247 247 246 247
261 259 257 256 254 254 254 254 254 253 252 251 247 245 245 246 246 244 242 241 242 245 246 245 246 248 249
263 261 259 257 255 254 253 252 250 250 250 250 250 247 245 242 243 242 243 242 243 243 244 244 245 244 246